ICE343 EKVG-BIRK

Flight info

Callsign ICE343
Flight time 1h 27m
Altitude 36000
Route MY DCT NASBU NASBU1V
Aircraft A21N/M-SDE2E3FGHIRWXY/LB1

Departure

Time 2026-04-28 11:46
Airport Vágar Airport (EKVG)

Arrival

Time 2026-04-28 13:13
Airport Reykjavík Domestic Airport (BIRK)
Time Latitude Longitude Altitude Speed Heading
2026-04-28 11:20 62.06723 -7.28100 300 ft 0 kts 73°
2026-04-28 11:33 62.06723 -7.28130 302 ft 3 kts 122°
2026-04-28 11:33 62.06729 -7.28165 298 ft 1 kts 117°
2026-04-28 11:39 62.06727 -7.28160 298 ft 1 kts 125°
2026-04-28 11:39 62.06719 -7.28150 298 ft 1 kts 159°
2026-04-28 11:39 62.06710 -7.28145 301 ft 2 kts 169°
2026-04-28 11:39 62.06694 -7.28134 298 ft 3 kts 152°
2026-04-28 11:40 62.06693 -7.28133 298 ft 0 kts 150°
2026-04-28 11:43 62.06692 -7.28132 298 ft 1 kts 150°
2026-04-28 11:43 62.06682 -7.28120 299 ft 2 kts 150°
2026-04-28 11:44 62.06660 -7.28099 297 ft 5 kts 161°
2026-04-28 11:44 62.06615 -7.28075 297 ft 8 kts 171°
2026-04-28 11:44 62.06560 -7.28078 295 ft 7 kts 187°
2026-04-28 11:44 62.06517 -7.28103 299 ft 0 kts 210°
2026-04-28 11:45 62.06511 -7.28110 297 ft 2 kts 210°
2026-04-28 11:45 62.06492 -7.28130 300 ft 5 kts 199°
2026-04-28 11:45 62.06454 -7.28113 300 ft 7 kts 135°
2026-04-28 11:45 62.06373 -7.27857 300 ft 50 kts 124°
2026-04-28 11:46 62.06098 -7.26747 283 ft 121 kts 117°
2026-04-28 11:46 62.05633 -7.24794 484 ft 162 kts 115°
2026-04-28 11:46 62.05214 -7.22464 1170 ft 171 kts 120°
2026-04-28 11:46 62.04677 -7.20296 2047 ft 162 kts 128°
2026-04-28 11:47 62.04142 -7.18333 2829 ft 142 kts 130°
2026-04-28 11:47 62.03632 -7.16466 3295 ft 159 kts 128°
2026-04-28 11:47 62.03023 -7.14335 3723 ft 177 kts 128°
2026-04-28 11:47 62.02319 -7.11949 4012 ft 206 kts 128°
2026-04-28 11:48 62.01482 -7.09213 4247 ft 235 kts 128°
2026-04-28 11:48 62.00526 -7.06159 4515 ft 261 kts 128°
2026-04-28 11:48 61.99459 -7.02807 4791 ft 285 kts 128°
2026-04-28 11:48 61.98167 -6.99443 5109 ft 301 kts 140°
2026-04-28 11:49 61.96524 -6.96821 5931 ft 293 kts 152°
2026-04-28 11:49 61.94672 -6.95383 6879 ft 281 kts 176°
2026-04-28 11:49 61.92727 -6.95709 7383 ft 285 kts 201°
2026-04-28 11:49 61.91039 -6.97857 7999 ft 286 kts 226°
2026-04-28 11:50 61.89951 -7.01370 8655 ft 289 kts 246°
2026-04-28 11:50 61.88966 -7.05093 9337 ft 292 kts 237°
2026-04-28 11:50 61.88311 -7.07597 9739 ft 295 kts 249°
2026-04-28 11:50 61.87984 -7.11890 10392 ft 300 kts 272°
2026-04-28 11:51 61.88541 -7.16167 11001 ft 308 kts 296°
2026-04-28 11:51 61.89849 -7.19813 11610 ft 315 kts 310°
2026-04-28 11:51 61.91436 -7.23062 12212 ft 319 kts 313°
2026-04-28 11:51 61.92991 -7.26424 12777 ft 319 kts 307°
2026-04-28 11:52 61.94600 -7.29725 13345 ft 324 kts 313°
2026-04-28 11:52 61.95993 -7.33421 13806 ft 321 kts 293°
2026-04-28 11:52 61.96926 -7.37860 14171 ft 338 kts 289°
2026-04-28 11:52 61.97827 -7.42565 14799 ft 347 kts 289°
2026-04-28 11:53 61.98761 -7.47321 15579 ft 351 kts 289°
2026-04-28 11:53 61.99731 -7.52124 16362 ft 355 kts 290°
2026-04-28 11:53 62.00727 -7.56968 17122 ft 359 kts 290°
2026-04-28 11:53 62.01740 -7.61854 17894 ft 362 kts 290°
2026-04-28 11:54 62.02766 -7.66790 18625 ft 366 kts 290°
2026-04-28 11:54 62.03799 -7.71757 19227 ft 369 kts 290°
2026-04-28 11:54 62.04842 -7.76777 19835 ft 372 kts 290°
2026-04-28 11:54 62.05895 -7.81852 20426 ft 375 kts 290°
2026-04-28 11:55 62.06952 -7.86957 20987 ft 378 kts 290°
2026-04-28 11:55 62.08016 -7.92105 21534 ft 381 kts 290°
2026-04-28 11:55 62.09089 -7.97311 22091 ft 384 kts 290°
2026-04-28 11:55 62.10164 -8.02539 22619 ft 387 kts 290°
2026-04-28 11:56 62.11246 -8.07815 23133 ft 389 kts 290°
2026-04-28 11:56 62.12337 -8.13146 23621 ft 392 kts 290°
2026-04-28 11:56 62.13431 -8.18507 24073 ft 395 kts 290°
2026-04-28 11:56 62.14531 -8.23911 24456 ft 398 kts 290°
2026-04-28 11:57 62.15636 -8.29353 24831 ft 400 kts 290°
2026-04-28 11:57 62.16745 -8.34835 25209 ft 402 kts 290°
2026-04-28 11:57 62.17857 -8.40342 25579 ft 405 kts 290°
2026-04-28 11:57 62.18960 -8.45818 25927 ft 407 kts 290°
2026-04-28 11:58 62.20095 -8.51470 26282 ft 409 kts 290°
2026-04-28 11:58 62.21205 -8.57012 26621 ft 411 kts 290°
2026-04-28 11:58 62.22333 -8.62660 26957 ft 413 kts 290°
2026-04-28 11:58 62.23465 -8.68348 27289 ft 415 kts 290°
2026-04-28 11:59 62.24600 -8.74063 27608 ft 417 kts 290°
2026-04-28 11:59 62.25737 -8.79801 27995 ft 418 kts 289°
2026-04-28 11:59 62.26873 -8.85553 28342 ft 419 kts 289°
2026-04-28 11:59 62.28013 -8.91344 28627 ft 422 kts 289°
2026-04-28 12:00 62.29154 -8.97157 28912 ft 424 kts 289°
2026-04-28 12:00 62.30297 -9.02995 29271 ft 424 kts 289°
2026-04-28 12:00 62.31436 -9.08827 29686 ft 422 kts 289°
2026-04-28 12:00 62.32568 -9.14645 30099 ft 421 kts 289°
2026-04-28 12:01 62.33695 -9.20452 30473 ft 420 kts 289°
2026-04-28 12:01 62.34817 -9.26248 30782 ft 419 kts 289°
2026-04-28 12:01 62.35934 -9.32040 31067 ft 419 kts 289°
2026-04-28 12:01 62.37047 -9.37828 31354 ft 418 kts 289°
2026-04-28 12:02 62.38158 -9.43615 31626 ft 417 kts 289°
2026-04-28 12:02 62.39262 -9.49390 31904 ft 417 kts 289°
2026-04-28 12:02 62.40364 -9.55166 32178 ft 416 kts 288°
2026-04-28 12:02 62.41461 -9.60940 32417 ft 416 kts 288°
2026-04-28 12:03 62.42556 -9.66716 32653 ft 416 kts 288°
2026-04-28 12:03 62.43648 -9.72491 32877 ft 415 kts 288°
2026-04-28 12:03 62.44737 -9.78269 33109 ft 415 kts 288°
2026-04-28 12:03 62.45822 -9.84040 33350 ft 415 kts 288°
2026-04-28 12:04 62.46903 -9.89814 33556 ft 414 kts 288°
2026-04-28 12:04 62.47982 -9.95587 33799 ft 414 kts 288°
2026-04-28 12:04 62.49056 -10.01349 34037 ft 413 kts 288°
2026-04-28 12:04 62.50124 -10.07101 34239 ft 412 kts 288°
2026-04-28 12:05 62.51189 -10.12853 34398 ft 412 kts 288°
2026-04-28 12:05 62.52253 -10.18615 34530 ft 412 kts 288°
2026-04-28 12:05 62.53314 -10.24378 34667 ft 412 kts 288°
2026-04-28 12:05 62.54373 -10.30146 34802 ft 412 kts 288°
2026-04-28 12:06 62.55430 -10.35921 34945 ft 412 kts 287°
2026-04-28 12:06 62.56486 -10.41709 35033 ft 413 kts 287°
2026-04-28 12:06 62.58598 -10.53336 35231 ft 414 kts 287°
2026-04-28 12:07 62.60705 -10.65004 35402 ft 416 kts 287°
2026-04-28 12:07 62.62797 -10.76658 35552 ft 418 kts 287°
2026-04-28 12:08 62.64903 -10.88465 35712 ft 419 kts 287°
2026-04-28 12:08 62.67005 -11.00320 35863 ft 421 kts 287°
2026-04-28 12:09 62.69106 -11.12238 35997 ft 422 kts 286°
2026-04-28 12:09 62.70153 -11.18215 36109 ft 423 kts 285°
2026-04-28 12:09 62.71202 -11.24209 36174 ft 424 kts 285°
2026-04-28 12:10 62.73297 -11.36248 36232 ft 426 kts 285°
2026-04-28 12:10 62.75400 -11.48418 36233 ft 431 kts 285°
2026-04-28 12:11 62.77512 -11.60711 36224 ft 435 kts 285°
2026-04-28 12:11 62.79629 -11.73114 36222 ft 439 kts 285°
2026-04-28 12:12 62.81759 -11.85676 36219 ft 443 kts 285°
2026-04-28 12:12 62.83898 -11.98375 36219 ft 447 kts 285°
2026-04-28 12:13 62.86026 -12.11063 36741 ft 437 kts 284°
2026-04-28 12:13 62.88124 -12.23548 36664 ft 443 kts 284°
2026-04-28 12:14 62.90253 -12.36294 36783 ft 442 kts 284°
2026-04-28 12:14 62.91301 -12.42531 37359 ft 430 kts 284°
2026-04-28 12:14 62.92314 -12.48645 37602 ft 426 kts 283°
2026-04-28 12:15 62.93300 -12.54883 36983 ft 441 kts 283°
2026-04-28 12:15 62.94308 -12.61325 36757 ft 446 kts 283°
2026-04-28 12:15 62.95311 -12.67721 37079 ft 439 kts 283°
2026-04-28 12:15 62.96323 -12.74019 37310 ft 436 kts 283°
2026-04-28 12:16 62.98346 -12.86557 37492 ft 435 kts 282°
2026-04-28 12:16 63.00349 -12.99089 37620 ft 433 kts 282°
2026-04-28 12:17 63.02333 -13.11619 37676 ft 433 kts 282°
2026-04-28 12:17 63.04306 -13.24164 37738 ft 433 kts 282°
2026-04-28 12:18 63.06267 -13.36725 37808 ft 433 kts 282°
2026-04-28 12:18 63.08220 -13.49341 37439 ft 443 kts 281°
2026-04-28 12:19 63.10200 -13.62171 37941 ft 429 kts 281°
2026-04-28 12:19 63.11185 -13.68323 38315 ft 420 kts 282°
2026-04-28 12:19 63.12124 -13.74339 38625 ft 409 kts 279°
2026-04-28 12:20 63.13893 -13.86237 38242 ft 411 kts 278°
2026-04-28 12:20 63.14790 -13.92296 37857 ft 416 kts 279°
2026-04-28 12:20 63.15704 -13.98444 37471 ft 425 kts 279°
2026-04-28 12:21 63.16638 -14.04717 37161 ft 433 kts 279°
2026-04-28 12:21 63.17590 -14.11120 36807 ft 442 kts 279°
2026-04-28 12:21 63.19503 -14.23965 36775 ft 442 kts 279°
2026-04-28 12:22 63.20466 -14.30435 36917 ft 438 kts 279°
2026-04-28 12:22 63.21403 -14.36701 37463 ft 423 kts 279°
2026-04-28 12:22 63.22306 -14.42796 37934 ft 408 kts 278°
2026-04-28 12:22 63.23171 -14.48702 38165 ft 400 kts 278°
2026-04-28 12:23 63.24024 -14.54638 37563 ft 410 kts 278°
2026-04-28 12:23 63.24896 -14.60744 36755 ft 421 kts 278°
2026-04-28 12:23 63.25794 -14.67014 36177 ft 431 kts 278°
2026-04-28 12:23 63.26712 -14.73387 35895 ft 435 kts 278°
2026-04-28 12:24 63.27636 -14.79811 35635 ft 438 kts 278°
2026-04-28 12:24 63.28563 -14.86273 35507 ft 439 kts 278°
2026-04-28 12:24 63.30407 -14.99208 35507 ft 441 kts 278°
2026-04-28 12:25 63.32238 -15.12147 35850 ft 433 kts 278°
2026-04-28 12:25 63.33135 -15.18514 36074 ft 430 kts 277°
2026-04-28 12:25 63.34021 -15.24859 36205 ft 429 kts 277°
2026-04-28 12:26 63.34903 -15.31202 36310 ft 428 kts 277°
2026-04-28 12:26 63.35781 -15.37536 36403 ft 428 kts 277°
2026-04-28 12:26 63.37530 -15.50227 36554 ft 428 kts 277°
2026-04-28 12:27 63.39268 -15.62929 36709 ft 428 kts 277°
2026-04-28 12:27 63.40995 -15.75642 36830 ft 428 kts 276°
2026-04-28 12:28 63.42712 -15.88380 36968 ft 428 kts 276°
2026-04-28 12:28 63.44416 -16.01125 37086 ft 428 kts 276°
2026-04-28 12:29 63.46111 -16.13894 37232 ft 428 kts 276°
2026-04-28 12:29 63.46952 -16.20270 37277 ft 428 kts 276°
2026-04-28 12:30 63.48630 -16.33070 37362 ft 429 kts 276°
2026-04-28 12:30 63.50296 -16.45881 37451 ft 429 kts 275°
2026-04-28 12:31 63.51956 -16.58784 37074 ft 439 kts 275°
2026-04-28 12:31 63.52790 -16.65305 37093 ft 427 kts 275°
2026-04-28 12:31 63.53597 -16.71543 36734 ft 419 kts 275°
2026-04-28 12:31 63.54396 -16.77793 36151 ft 415 kts 275°
2026-04-28 12:32 63.55183 -16.83990 35630 ft 411 kts 275°
2026-04-28 12:32 63.55957 -16.90114 35180 ft 405 kts 274°
2026-04-28 12:32 63.56716 -16.96134 34813 ft 397 kts 274°
2026-04-28 12:32 63.57458 -17.02043 34383 ft 391 kts 274°
2026-04-28 12:33 63.58186 -17.07884 33923 ft 386 kts 274°
2026-04-28 12:33 63.58902 -17.13654 33411 ft 381 kts 273°
2026-04-28 12:33 63.59607 -17.19353 32941 ft 376 kts 272°
2026-04-28 12:33 63.60301 -17.24980 32445 ft 371 kts 272°
2026-04-28 12:34 63.60984 -17.30534 31990 ft 367 kts 272°
2026-04-28 12:34 63.61666 -17.36149 31713 ft 378 kts 272°
2026-04-28 12:34 63.62360 -17.41955 31452 ft 391 kts 273°
2026-04-28 12:34 63.63079 -17.47949 31189 ft 404 kts 273°
2026-04-28 12:35 63.63822 -17.54135 30929 ft 416 kts 274°
2026-04-28 12:35 63.64589 -17.60511 30669 ft 428 kts 274°
2026-04-28 12:35 63.65375 -17.67059 30478 ft 437 kts 274°
2026-04-28 12:36 63.66948 -17.79979 30375 ft 414 kts 274°
2026-04-28 12:36 63.67691 -17.86161 30137 ft 403 kts 273°
2026-04-28 12:36 63.68406 -17.92189 29855 ft 393 kts 273°
2026-04-28 12:36 63.69100 -17.98067 29562 ft 382 kts 273°
2026-04-28 12:37 63.69769 -18.03769 29253 ft 371 kts 272°
2026-04-28 12:37 63.70418 -18.09337 28891 ft 364 kts 271°
2026-04-28 12:37 63.71053 -18.14826 28389 ft 359 kts 271°
2026-04-28 12:37 63.71677 -18.20234 27928 ft 353 kts 271°
2026-04-28 12:38 63.72288 -18.25548 27488 ft 347 kts 271°
2026-04-28 12:38 63.72889 -18.30779 27036 ft 342 kts 271°
2026-04-28 12:38 63.73281 -18.34211 26745 ft 339 kts 270°
2026-04-28 12:38 63.73864 -18.39320 26316 ft 334 kts 270°
2026-04-28 12:39 63.74438 -18.44367 25898 ft 330 kts 270°
2026-04-28 12:39 63.75004 -18.49372 25455 ft 327 kts 270°
2026-04-28 12:39 63.75563 -18.54318 25042 ft 323 kts 270°
2026-04-28 12:39 63.76115 -18.59225 24627 ft 320 kts 270°
2026-04-28 12:40 63.76660 -18.64088 24208 ft 318 kts 270°
2026-04-28 12:40 63.77201 -18.68926 23814 ft 316 kts 269°
2026-04-28 12:40 63.77736 -18.73736 23340 ft 315 kts 269°
2026-04-28 12:40 63.78268 -18.78520 22881 ft 312 kts 269°
2026-04-28 12:41 63.78794 -18.83256 22482 ft 309 kts 269°
2026-04-28 12:41 63.79313 -18.87947 22075 ft 306 kts 269°
2026-04-28 12:41 63.79818 -18.92536 21667 ft 303 kts 269°
2026-04-28 12:41 63.80330 -18.97199 21273 ft 300 kts 269°
2026-04-28 12:42 63.80822 -19.01723 20890 ft 301 kts 268°
2026-04-28 12:42 63.81319 -19.06325 20446 ft 301 kts 268°
2026-04-28 12:42 63.81819 -19.10927 20044 ft 300 kts 268°
2026-04-28 12:42 63.82314 -19.15495 19649 ft 297 kts 269°
2026-04-28 12:43 63.82804 -19.20006 19254 ft 293 kts 269°
2026-04-28 12:43 63.83250 -19.24124 18869 ft 290 kts 268°
2026-04-28 12:43 63.83719 -19.28522 18476 ft 286 kts 268°
2026-04-28 12:43 63.84185 -19.32875 18054 ft 283 kts 268°
2026-04-28 12:44 63.84644 -19.37164 17650 ft 277 kts 269°
2026-04-28 12:44 63.85100 -19.41419 17273 ft 286 kts 269°
2026-04-28 12:44 63.85562 -19.45895 16889 ft 294 kts 270°
2026-04-28 12:44 63.86036 -19.50405 16459 ft 294 kts 270°
2026-04-28 12:45 63.86512 -19.54889 16060 ft 291 kts 270°
2026-04-28 12:45 63.86982 -19.59344 15668 ft 289 kts 270°
2026-04-28 12:45 63.87446 -19.63775 15260 ft 288 kts 270°
2026-04-28 12:45 63.87904 -19.68184 14862 ft 286 kts 270°
2026-04-28 12:46 63.88359 -19.72558 14493 ft 284 kts 270°
2026-04-28 12:46 63.88811 -19.76923 14083 ft 285 kts 270°
2026-04-28 12:46 63.89263 -19.81321 13681 ft 287 kts 270°
2026-04-28 12:46 63.89718 -19.85751 13237 ft 288 kts 271°
2026-04-28 12:47 63.90171 -19.90153 12876 ft 285 kts 271°
2026-04-28 12:47 63.90620 -19.94536 12466 ft 284 kts 271°
2026-04-28 12:47 63.91063 -19.98884 12053 ft 281 kts 271°
2026-04-28 12:47 63.91502 -20.03193 11715 ft 279 kts 271°
2026-04-28 12:48 63.91937 -20.07483 11276 ft 279 kts 271°
2026-04-28 12:48 63.92369 -20.11771 10881 ft 278 kts 272°
2026-04-28 12:48 63.92800 -20.16044 10496 ft 277 kts 272°
2026-04-28 12:48 63.93226 -20.20289 10160 ft 273 kts 271°
2026-04-28 12:49 63.93642 -20.24382 10078 ft 259 kts 271°
2026-04-28 12:49 63.94039 -20.28302 9897 ft 251 kts 270°
2026-04-28 12:49 63.94419 -20.32170 9591 ft 250 kts 271°
2026-04-28 12:49 63.94704 -20.36082 9374 ft 255 kts 265°
2026-04-28 12:50 63.94872 -20.40115 9154 ft 253 kts 264°
2026-04-28 12:50 63.95019 -20.44019 8958 ft 243 kts 264°
2026-04-28 12:50 63.95156 -20.47838 8681 ft 243 kts 264°
2026-04-28 12:50 63.95286 -20.51690 8373 ft 245 kts 264°
2026-04-28 12:51 63.95419 -20.55546 8057 ft 244 kts 264°
2026-04-28 12:51 63.95552 -20.59390 7772 ft 243 kts 264°
2026-04-28 12:51 63.95683 -20.63175 7497 ft 242 kts 264°
2026-04-28 12:51 63.95815 -20.66989 7219 ft 242 kts 265°
2026-04-28 12:52 63.96048 -20.70810 6971 ft 248 kts 277°
2026-04-28 12:52 63.96792 -20.74458 6930 ft 262 kts 296°
2026-04-28 12:52 63.97926 -20.77764 6913 ft 267 kts 301°
2026-04-28 12:52 63.99147 -20.80974 6896 ft 269 kts 302°
2026-04-28 12:53 64.00377 -20.84174 6791 ft 267 kts 301°
2026-04-28 12:53 64.01593 -20.87357 6719 ft 266 kts 301°
2026-04-28 12:53 64.02802 -20.90546 6664 ft 265 kts 301°
2026-04-28 12:53 64.04004 -20.93735 6595 ft 265 kts 301°
2026-04-28 12:54 64.05204 -20.96932 6535 ft 265 kts 301°
2026-04-28 12:54 64.06400 -21.00124 6471 ft 264 kts 301°
2026-04-28 12:54 64.07597 -21.03327 6403 ft 266 kts 300°
2026-04-28 12:54 64.08792 -21.06544 6337 ft 264 kts 301°
2026-04-28 12:55 64.09982 -21.09734 6286 ft 262 kts 301°
2026-04-28 12:55 64.11160 -21.12902 6202 ft 261 kts 301°
2026-04-28 12:55 64.12336 -21.16070 6146 ft 261 kts 301°
2026-04-28 12:55 64.13515 -21.19254 6088 ft 262 kts 301°
2026-04-28 12:56 64.14690 -21.22428 6025 ft 261 kts 301°
2026-04-28 12:56 64.15862 -21.25601 5972 ft 260 kts 301°
2026-04-28 12:56 64.17031 -21.28772 5901 ft 260 kts 301°
2026-04-28 12:56 64.18200 -21.31940 5849 ft 260 kts 301°
2026-04-28 12:57 64.19367 -21.35105 5764 ft 260 kts 301°
2026-04-28 12:57 64.20531 -21.38273 5700 ft 259 kts 301°
2026-04-28 12:57 64.21679 -21.41399 5624 ft 259 kts 301°
2026-04-28 12:57 64.22839 -21.44561 5589 ft 259 kts 301°
2026-04-28 12:58 64.23997 -21.47728 5510 ft 258 kts 301°
2026-04-28 12:58 64.25160 -21.50903 5432 ft 250 kts 301°
2026-04-28 12:58 64.26249 -21.53877 5394 ft 239 kts 300°
2026-04-28 12:58 64.27301 -21.56785 5335 ft 239 kts 300°
2026-04-28 12:59 64.28367 -21.59707 5271 ft 238 kts 300°
2026-04-28 12:59 64.29431 -21.62648 5215 ft 240 kts 301°
2026-04-28 12:59 64.30501 -21.65573 5156 ft 238 kts 300°
2026-04-28 12:59 64.31561 -21.68499 5097 ft 237 kts 300°
2026-04-28 13:00 64.32619 -21.71417 5045 ft 237 kts 300°
2026-04-28 13:00 64.33642 -21.74403 5022 ft 234 kts 294°
2026-04-28 13:00 64.34298 -21.77701 4650 ft 219 kts 272°
2026-04-28 13:00 64.34390 -21.81096 4299 ft 209 kts 259°
2026-04-28 13:01 64.34283 -21.84425 3979 ft 207 kts 256°
2026-04-28 13:01 64.34146 -21.87728 3686 ft 207 kts 256°
2026-04-28 13:01 64.33947 -21.90934 3536 ft 193 kts 248°
2026-04-28 13:01 64.33460 -21.93601 3583 ft 169 kts 231°
2026-04-28 13:02 64.32730 -21.95495 3542 ft 149 kts 215°
2026-04-28 13:02 64.31867 -21.96606 3117 ft 139 kts 197°
2026-04-28 13:02 64.30904 -21.96959 2749 ft 142 kts 186°
2026-04-28 13:02 64.29891 -21.96991 2339 ft 143 kts 182°
2026-04-28 13:03 64.28921 -21.96826 2185 ft 142 kts 180°
2026-04-28 13:03 64.27949 -21.96625 1998 ft 136 kts 180°
2026-04-28 13:03 64.27019 -21.96446 1844 ft 133 kts 180°
2026-04-28 13:03 64.26102 -21.96285 1720 ft 132 kts 180°
2026-04-28 13:04 64.25199 -21.96124 1582 ft 132 kts 180°
2026-04-28 13:04 64.24283 -21.95954 1468 ft 132 kts 180°
2026-04-28 13:04 64.23368 -21.95776 1395 ft 132 kts 181°
2026-04-28 13:04 64.22455 -21.95597 1292 ft 132 kts 181°
2026-04-28 13:05 64.21541 -21.95420 1183 ft 132 kts 179°
2026-04-28 13:05 64.20618 -21.95241 1129 ft 131 kts 179°
2026-04-28 13:05 64.19724 -21.95068 1048 ft 131 kts 179°
2026-04-28 13:05 64.18819 -21.94895 949 ft 130 kts 178°
2026-04-28 13:06 64.17918 -21.94720 860 ft 130 kts 178°
2026-04-28 13:06 64.17021 -21.94547 748 ft 129 kts 177°
2026-04-28 13:06 64.16129 -21.94377 632 ft 129 kts 178°
2026-04-28 13:06 64.15231 -21.94207 451 ft 129 kts 175°
2026-04-28 13:07 64.14367 -21.93999 230 ft 120 kts 180°
2026-04-28 13:07 64.13567 -21.93866 143 ft 124 kts 178°
2026-04-28 13:07 64.12773 -21.93728 244 ft 115 kts 178°
2026-04-28 13:07 64.11956 -21.93535 311 ft 119 kts 172°
2026-04-28 13:08 64.11126 -21.93335 368 ft 122 kts 179°
2026-04-28 13:08 64.10255 -21.93263 632 ft 125 kts 177°
2026-04-28 13:08 64.09386 -21.93114 806 ft 125 kts 178°
2026-04-28 13:08 64.08539 -21.93202 976 ft 120 kts 203°
2026-04-28 13:09 64.07932 -21.94482 1241 ft 125 kts 237°
2026-04-28 13:09 64.07945 -21.96536 1557 ft 146 kts 289°
2026-04-28 13:09 64.08693 -21.98267 1788 ft 152 kts 297°
2026-04-28 13:09 64.09262 -22.00198 2012 ft 145 kts 288°
2026-04-28 13:10 64.09801 -22.02155 2029 ft 147 kts 290°
2026-04-28 13:10 64.10621 -22.03730 1870 ft 164 kts 330°
2026-04-28 13:10 64.11794 -22.04245 1495 ft 176 kts 350°
2026-04-28 13:10 64.12988 -22.04382 1461 ft 172 kts 356°
2026-04-28 13:11 64.14208 -22.04248 1707 ft 176 kts
2026-04-28 13:11 64.15411 -22.03987 1758 ft 173 kts
2026-04-28 13:11 64.16615 -22.03631 1717 ft 178 kts
2026-04-28 13:11 64.17650 -22.02240 1588 ft 171 kts 61°
2026-04-28 13:12 64.17935 -22.00062 2398 ft 133 kts 107°
2026-04-28 13:12 64.17655 -21.97765 2336 ft 168 kts 127°
2026-04-28 13:12 64.17009 -21.95520 1947 ft 166 kts 140°
2026-04-28 13:12 64.16122 -21.94164 1367 ft 151 kts 174°
2026-04-28 13:13 64.15027 -21.94134 580 ft 161 kts 183°
2026-04-28 13:13 64.13931 -21.93946 147 ft 154 kts 174°
2026-04-28 13:13 64.12954 -21.93755 53 ft 113 kts 175°
2026-04-28 13:13 64.12462 -21.93665 54 ft 38 kts 162°
2026-04-28 13:14 64.12432 -21.93484 53 ft 8 kts 56°
2026-04-28 13:14 64.12458 -21.93443 51 ft 0 kts 15°